COSMOS 292

Satellite information

Favourite Embed

Satellite Type and Status

PAYLOADIN ORBIT

Key statistics

Satellite COSMOS 292 at a glance.

Uptime

20477

Days in orbit

Revolutions

≈ 14.6

Per day

Orbit

LEO

Low Earth Orbit

Inclination

74.0

Latest

Satellite identification and parameters

Extended collection of information and parameters for COSMOS 292.

Object identification

Identified? True

Debris? False

Object name: COSMOS 292

International designator: 1969-070A

Object number (NORAD): 4070

Object ID (CCSDS): 4070

Country: COMMONWEALTH OF INDEPENDENT STATES (CIS)

Current information (Y/N): Y

RCS size: LARGE

Orbital parameters

Period: 98.955 minutes

Inclination: 74.0477 deg

SMA: 7086.845 km

Apoapsis: 715.514 km

Periapsis: 701.905 km

RAAN: 126.5907 deg

Eccentricy: 0.00096018

Argument of periapsis: 163.9058 deg

Mean anomaly: 196.2412 deg

Mean motion: 14.55202389 rev/day

Mean motion (dot): 0.00000518 rev/day2

B* drag term: 0.00012634558 1/REarth

Two-line elements (TLE)

Creation date: Sept. 4, 2025, 10:13 a.m.

Reference frame: TEME

Reference center: EARTH

Epoch: Sept. 4, 2025, 3:08 a.m. UTC

TLE line 0: 0 COSMOS 292

TLE line 1: 1 04070U 69070A 25247.13095100 .00000518 00000-0 12635-3 0 9996

TLE line 2: 2 04070 74.0477 126.5907 0009602 163.9058 196.2412 14.55202389964509

Live tracking on map

Real-time ground track for satellite COSMOS 292.

In-orbit conjunctions

A list of the most updated potential collisions computed for object COSMOS 292.

Target Orbit TCA Probability of collision Miss distance Type
CZ-6A DEB LEO 2025-07-19 04:38:46 0.001080101 421.0 (m) DEBRIS
FENGYUN 1C DEB SSO 2025-04-16 05:11:53 0.0001455469 699.0 (m) DEBRIS

Associated space launch

The first soviet navigation system called Tsiklon consisted of Zaliv satellites in low earth orbit.

COSMOS 292 was lifted into orbit during the mission ‘Kosmos-3M | Zaliv 3’, on board a Kosmos-3M space rocket.

The launch took place on Aug. 13, 1969, 10 p.m. from 132/2.

For more information about the launch, click the button.

Launch to space Kosmos-3M | Zaliv 3
Kosmos-3M | Zaliv 3

Agency: N/A

Status: Launch Successful

Launch date: Aug. 13, 1969, 10 p.m. UTC

Rocket: Kosmos-3M

Launch pad: 132/2

Location: Plesetsk Cosmodrome, Russian Federation

...

Latest news about this satellite

There are no fresh news available about this satellite. Check back as we update our databases every day.


Newsletter sign-up

Weekly statistics, charts and insights to help you stay on top of the space industry.